sat.trackr.live / text

‹ back to catalog

STARLINK-36982

NORAD 68278 · 2026-055S

PAYLOAD ACTIVE UNKNOWN

§ Identity

Operator
Country
US
Launch date
2026-03-19
Launch site
AFETR
Launch vehicle
Mass (kg)
RCS (m²)

Purposes: comms

External: N2YO · Heavens-Above · Gunter

§ Orbital elements

Epoch: 2026-05-25T04:00:03.998880Z

Period
93.78 min
Inclination
53.1598°
Eccentricity
0.0001305
Mean motion
15.35433081 rev/d
Perigee alt
458.7 km
Apogee alt
460.5 km
Semi-major
6,837.8 km
B*
-3.6485e-4
RAAN
323.0912°
Arg perigee
127.3902°
Mean anomaly
221.9493°
Rev number
569

§ Raw data

STARLINK-369821 68278U 26055S   26145.16671295 -.00013099  00000+0 -36485-3 0  99962 68278  53.1598 323.0912 0001305 127.3902 221.9493 15.35433081  5690

JSON: /api/v1/satellites/68278 · /tle

For live sub-satellite position, see the globe view (requires WebGL).

§ Visibility from observer

Set your observer location to see the next 7 days of passes ≥ 10°. The values pass through the URL so the page stays shareable.

No JS? Fill the form by hand. The geolocation button needs JavaScript.